Regional Weather Roundup
Issued by NWS

Home | Current Version | Previous Version | Graphics & Text | Print | Product List | Glossary On
Versions: 1 2 3 4 5 6 7 8 9 10 11 12 13 14 15 16 17 18 19 20 21 22 23 24 25 26 27 28 29 30 31 32 33 34 35 36 37 38 39 40 41 42 43 44 45 46 47 48 49 50
000
ASUS43 KFSD 070610
RWRSD

WEATHER ROUNDUP FOR SOUTH DAKOTA
NATIONAL WEATHER SERVICE SIOUX FALLS SD
1200 AM CST SUN FEB 07 2016

NOTE: "FAIR" INDICATES FEW OR NO CLOUDS BELOW 12,000 FEET WITH NO
SIGNIFICANT WEATHER AND/OR OBSTRUCTIONS TO VISIBILITY.


SDZ001>005-009-010-012>017-070700-
NORTHWEST AND NORTH CENTRAL SOUTH DAKOTA

CITY           SKY/WX    TMP DP  RH WIND       PRES   REMARKS
BUFFALO          N/A     38  23  55 W40G49    29.91R
FAITH            N/A     35  21  56 NW23      29.92R WCI  23
MOBRIDGE       CLEAR     40  26  57 NW20G32   29.79R
$$

SDZ012>016-024>037-041>051-057-063-072>074-070700-
SOUTHWEST AND SOUTH CENTRAL SOUTH DAKOTA

CITY           SKY/WX    TMP DP  RH WIND       PRES   REMARKS
RAPID CTY ARPT CLEAR     38  18  44 NW25      30.02R
PIERRE         CLEAR     38  26  62 W16       29.90R
CUSTER         CLOUDY    30   9  41 NW13G29   30.01R WCI  20
ELLSWORTH AFB  CLEAR     38  18  45 NW26G33   30.00S
PHILIP         CLEAR     38  24  57 W17       29.98R
PINE RIDGE     CLOUDY    34  26  72 SW7       30.06R WCI  28
SPEARFISH      FAIR      34  18  51 W18G31    30.05R WCI  23
WINNER         FAIR      40  25  55 W18       29.95R
$$

SDZ004>011-016>023-039-040-070700-
NORTHEAST SOUTH DAKOTA

CITY           SKY/WX    TMP DP  RH WIND       PRES   REMARKS
ABERDEEN       PTCLDY    41  27  57 W20G25    29.72F
WATERTOWN      CLEAR     36  26  67 W20       29.72S
BROOKINGS      PTCLDY    38  28  67 W20       29.74F
SISSETON         N/A     40  30  67 NW30G36   29.64F
$$

SDZ017-020-022-023-036>040-048>070-070700-
SOUTHEAST SOUTH DAKOTA

CITY           SKY/WX    TMP DP  RH WIND       PRES   REMARKS
SIOUX FALLS    CLOUDY    40  29  64 W14       29.81F
HURON          CLEAR     37  28  70 W17       29.81R
CHAMBERLAIN    CLEAR     37  28  68 W17G24    29.90S
MITCHELL       PTCLDY    40  29  64 W17       29.85S
YANKTON        CLOUDY    41  28  60 W17       29.87R
$$

ABBREVIATIONS USED IN REMARKS
   TC - TEMPERATURE IN CELSIUS
  WCI - WIND CHILL INDEX
   HX - HEAT INDEX
  VSB - VISIBILITY




USA.gov is the U.S. government's official web portal to all federal, state and local government web resources and services.